Tracking 28096 objects as of 29-Sep-2023
HD Live streaming from Space Station
objects crossing your sky now

STARLINK-30073

Track STARLINK-30073 now!
10-day predictions
STARLINK-30073 is classified as:


NORAD ID: 56840
Int'l Code: 2023-079T
Perigee: 561.7 km
Apogee: 562.2 km
Inclination: 43.0 °
Period: 95.7 minutes
Semi major axis: 6932 km
RCS: Unknown
Launch date: June 4, 2023
Source: United States (US)
Launch site: AIR FORCE EASTERN TEST RANGE (AFETR)
Your satellite tracking list
Your tracking list is empty




NASA's NSSDC Master Catalog

Two Line Element Set (TLE):
1 56840U 23079T   23271.84831843 -.00072372  00000-0 -52023-2 0  9995
2 56840  42.9993 266.0357 0000340 216.5791 143.5029 15.03920806 18724
Source of the keplerian elements: AFSPC